Weather Service Report


650 
ASUS44 KJAN 222203
RWRMS 

MISSISSIPPI HOURLY WEATHER ROUNDUP
NATIONAL WEATHER SERVICE JACKSON MS
400 PM CST MON DEC 22 2014

NOTE: "FAIR: INDICATES FEW OR NO CLOUDS BELOW 12,000 FEET WITH NO
SIGNIFICANT WEATHER AND/OR OBSTRUCTIONS TO VISIBILITY.

MSZ001>002-007>008-010>013-018>021-025>028-034>036-222300-
NORTHWEST MISSISSIPPI
  
CITY           SKY/WX    TMP DP  RH WIND       PRES   REMARKS
CLARKSDALE     CLOUDY    59  57  94 SE14      29.62S                  
CLEVELAND      CLOUDY    61  58  91 S13       29.62R                  
GREENWOOD      CLOUDY    61  56  83 S10       29.65S                  
GREENVILLE     CLOUDY    62  57  83 S12       29.61R                  
GRENADA        CLOUDY    55  54  94 SE7       29.66F                  
OLIVE BRANCH   CLOUDY    55  55 100 SE12G18   29.61F                  
OXFORD         CLOUDY    54  50  87 SE10G18   29.66F FOG              
TUNICA         CLOUDY    55  54  94 SE14      29.62R                  
$$

MSZ003>006-009-014>017-022>024-029>033-037>039-222300-
NORTHEAST MISSISSIPPI
  
CITY           SKY/WX    TMP DP  RH WIND       PRES   REMARKS
COLUMBUS AFB   CLOUDY    55  55 100 SE7       29.72F FOG              
CORINTH        CLOUDY    54  52  94 SE13      29.68F FOG              
GOLDN TRIANGLE FOG       55  54  94 MISG      29.71F VSB 1            
STARKVILLE     FOG       54  54 100 SE8       29.71S VSB 3/4          
TUPELO         CLOUDY    54  52  93 S10       29.69F FOG              
$$

MSZ040-058-222300-
CENTRAL MISSISSIPPI
  
CITY           SKY/WX    TMP DP  RH WIND       PRES   REMARKS
JACKSON INTL   CLOUDY    63  60  90 SE8       29.66F                  
JACKSON HAWKNS CLOUDY    63  60  90 S12       29.65F                  
MERIDIAN KEY   CLOUDY    61  59  93 S10       29.71F                  
MERIDIAN NAS   CLOUDY    58  56  93 SE8       29.73F FOG              
RAYMOND        CLOUDY    63  59  88 SE6       29.65F FOG              
VICKSBURG      CLOUDY    67  60  78 SW5       29.64R                  
$$

MSZ059>079-222300-
SOUTH MISSISSIPPI
  
CITY           SKY/WX    TMP DP  RH WIND       PRES   REMARKS
HATTIESBURG    CLOUDY    69  65  86 S7        29.72S                  
MCCOMB         PTSUNNY   71  63  75 S7        29.67F                  
NATCHEZ        PTSUNNY   70  61  73 S12G17    29.64F                  
PINE BELT      CLOUDY    66  63  88 S7        29.72F                  
$$

MSZ080>082-222300-
COASTAL MISSISSIPPI
  
CITY           SKY/WX    TMP DP  RH WIND       PRES   REMARKS
BAY ST LOUIS   PTSUNNY   72  64  78 S10G17    29.72F                  
BILOXI         MOSUNNY   66  66 100 S13       29.74S                  
PASCAGOULA     CLOUDY    70  66  87 S9G18     29.75S                  
GULFPORT       PTSUNNY   67  64  90 S6        29.73S                  
$$

Return to Home page


Western Regional Climate Center, wrcc@dri.edu